Regional Weather Roundup
Issued by NWS Upton, NY

Current Version | Previous Version | Graphics & Text | Print | Product List | Glossary Off
Versions: 1 2 3 4 5 6 7 8 9 10 11 12 13 14 15 16 17 18 19 20 21 22 23 24 25 26 27 28 29 30 31 32 33 34 35 36 37 38 39 40 41 42 43 44 45 46 47 48 49 50
000 ASUS41 KOKX 081708 RWROKX REGIONAL WEATHER ROUNDUP NATIONAL WEATHER SERVICE NEW YORK NY 1200 PM EST THU DEC 08 2016 NOTE: "FAIR" INDICATES FEW OR NO CLOUDS BELOW 12,000 FEET WITH NO SIGNIFICANT WEATHER AND/OR OBSTRUCTIONS TO VISIBILITY. NYZ071-072-176-178-NJZ106-104-081800- NEW YORK CITY METRO AREA CITY SKY/WX TMP DP RH WIND PRES REMARKS Central Park N/A 45 21 39 MISG N/A Wall St Helipt CLOUDY 43 28 56 W10 29.94F Bronx Bot Gard N/A 43 25 49 W10 29.93S LaGuardia APRT CLOUDY 45 22 40 W12 29.92F Kennedy INTL CLOUDY 44 26 49 W15 29.94F Breezy Point N/A 41 N/A N/A W10G16 N/A Newark/Liberty CLOUDY 43 25 49 SW12 29.92F Teterboro CLOUDY 44 24 45 W9G16 29.91F $$ NYZ177-179-078>081-081800- LONG ISLAND NEW YORK CITY SKY/WX TMP DP RH WIND PRES REMARKS Jones Beach N/A 41 N/A N/A W13 N/A Matinecock PT N/A 43 N/A N/A W16 N/A Farmingdale CLOUDY 43 31 62 SW8 29.91F MacArthur/ISP CLOUDY 44 30 57 W8 29.90F Shirley CLOUDY 43 31 62 SW8 29.90F Westhampton CLOUDY 44 28 53 W8 29.91F Southampton N/A 45 34 65 W5 29.85F Bridgehampton NOT AVBL East Hampton PTSUNNY 44 28 54 W6 29.88F Montauk N/A 45 33 63 W8 29.88F $$ NYZ052-065-067-081800- HUDSON VALLEY CITY SKY/WX TMP DP RH WIND PRES REMARKS White Plains CLOUDY 40 25 55 W6 29.88F Newburgh PTSUNNY 39 28 65 W14 29.89F WCI 31 Montgomery CLOUDY 40 27 59 SW13 29.87F WCI 32 Poughkeepsie CLOUDY 39 26 59 SW9 29.87F WCI 33 Albany CLOUDY 39 30 70 S5 29.85F $$ NJZ001-105-106-008-010-013-015-019>022-104-081800- NEW JERSEY CITY SKY/WX TMP DP RH WIND PRES REMARKS Newark/Liberty CLOUDY 43 25 49 SW12 29.92F Teterboro CLOUDY 44 24 45 W9G16 29.91F Caldwell PTSUNNY 42 24 49 W9 29.92F Somerville PTSUNNY 43 23 45 VRB7 29.91F Linden CLOUDY 42 23 46 W7 29.93F Sussex NOT AVBL Andover N/A 39 25 57 CALM 29.90F Trenton CLOUDY 43 26 51 VRB7 29.93F Millville CLOUDY 42 37 82 W7 29.98F Atlantic City CLOUDY 41 29 62 W3 29.98F Wrightstown CLOUDY 41 31 67 W8 29.93F Toms River CLOUDY 37 33 85 SW5 29.97F WCI 33 Belmar CLOUDY 39 29 67 SW7 29.96F WCI 34 $$ PAZ047>061-062-071-081800- EASTERN PENNSYLVANIA CITY SKY/WX TMP DP RH WIND PRES REMARKS Philadelphia CLOUDY 44 27 51 SW10 29.97F Allentown CLOUDY 42 23 46 W10 29.93F Scranton MOSUNNY 38 22 52 SW13 29.90F WCI 30 $$ CTZ002-004>006-009-010-012-RIZ004-006-007-MAZ004-011-015-081800- SOUTHERN NEW ENGLAND IN CT CITY SKY/WX TMP DP RH WIND PRES REMARKS Bradley INTL CLOUDY 37 33 85 SW5 29.86F WCI 33 Hartford CLOUDY 40 30 67 SW7 29.87F Danbury CLOUDY 39 28 64 SW12 29.88F WCI 32 Wtrbury/Oxford PTSUNNY 37 28 70 W8 29.86F WCI 31 Bridgeport PTSUNNY 44 28 53 W8 29.89F Meriden CLOUDY 42 29 59 SW3 29.87F New Haven CLOUDY 42 30 62 SW7 29.88F Chester CLOUDY 43 27 52 W9G16 29.86F Groton CLOUDY 47 35 63 W7 29.86F Wilimantic CLOUDY 40 34 79 W6 29.86F IN RI CITY SKY/WX TMP DP RH WIND PRES REMARKS Providence CLOUDY 42 33 70 S3 29.85F Block Island CLOUDY 45 34 65 W12G20 29.86F Westerly CLOUDY 45 29 53 SW8 29.87F IN MA CITY SKY/WX TMP DP RH WIND PRES REMARKS Boston CLOUDY 41 33 73 SW10 29.83F Worcester CLOUDY 35 30 82 W8 29.80F WCI 29 Westfield PTSUNNY 35 35 100 S5 29.85F FOG WCI 31 Provincetown MOSUNNY 45 34 65 W12 29.84F Nantucket CLOUDY 46 36 68 S9 29.85F $$ ANZ330-335-338-340-345-350-353-355-081800- COASTAL MARINE OBSERVATIONS STATION/POSITION TIME SKY/WX TEMP WIND PRES VSBY WAVE AIR SEA DIR/SP/G HT/PER (UTC) (F) (DEG/KT/KT) (MB) (MI) (FT/S) NY HARB ENTRANCE 1650 43 52 260/ 14/ 16 1013.3 3/ 8 20 S FIRE ISLAND 1650 44 53 270/ 16/ 17 1013.1 3/ 9 GREAT SOUTH BAY 1615 42 43 N/A 23 SSW MONTAUK P 1650 45 54 260/ 10/ 12 1012.3 3/10 15 E BARNEGAT LI 1630 53 N/A 4/ 8 HUDSON CANYON 1550 48 56 1014.5 4/ 9 KINGS POINT 1648 43 47 1012.9 EXECUTION ROCKS 1645 44 240/ 12/ 14 N/A CENTRAL LI SOUND 1615 44 50 260/ 12/ 14 N/A 2/ 3 EASTERN LI SOUND NOT AVBL ROBBINS REEF 1648 42 270/ 11/ 13 1013.6 $$ >>>>>>>>>>>>>>>>>>>>>>>>>>>> KEY <<<<<<<<<<<<<<<<<<<<<<<<<<< > < > SKY/WX - Sky Condition/Present Weather < > TMP - Temperature in Fahrenheit < > DP - Dew Point in Fahrenheit < > RH - Relative Humidity in Percent < > WIND - Direction (from) and Speed in MPH < > PRES - Mean Sea Level Pressure (inches of Hg) < > WCI - Wind Chill Index < > VSB - VISIBILITY IN MILES < > HX - HEAT INDEX < > TC - TEMPERATURE IN CELSIUS < > VRB - VARIABLE WIND DIRECTION < > < >>>>>>>>>>>>>>>>>>>>>>>>>>>> KEY <<<<<<<<<<<<<<<<<<<<<<<<<<<

USA.gov is the U.S. government's official web portal to all federal, state and local government web resources and services.